Location: Unspecified
(0.0000°N, 0.0000°E)
Time: 04:04:54
(UTC+00:00)

N. Korean satellite - Pass Details

Date: 09 February 2018
Orbit: 459 x 514 km, 97.2° (Epoch: 23 February)

Event Time Altitude Azimuth Distance (km) Brightness Sun altitude
Rises 05:34:41 0° 39° (NE) 2,557 10.6 -9.6°
Reaches altitude 10° 05:37:18 10° 60° (ENE) 1,691 10.0 -8.9°
Maximum altitude 05:39:41 17° 102° (ESE) 1,335 10.2 -8.3°
Drops below altitude 10° 05:42:06 10° 143° (SE) 1,715 10.2 -7.8°
Sets 05:44:47 0° 163° (SSE) 2,611 10.7 -7.1°
